Regional Weather Roundup
Issued by NWS

Home | Current Version | Previous Version | Graphics & Text | Print | Product List | Glossary On
Versions: 1 2 3 4 5 6 7 8 9 10 11 12 13 14 15 16 17 18 19 20 21 22 23 24 25 26 27
000
ASUS45 KTFX 291810
RWRMT
MONTANA REGIONAL WEATHER ROUNDUP
NATIONAL WEATHER SERVICE GREAT FALLS MT
1200 PM MDT SUN MAY 29 2016

NOTE: "FAIR" INDICATES FEW OR NO CLOUDS BELOW 12000 FEET WITH NO
SIGNIFICANT WEATHER AND/OR OBSTRUCTIONS TO VISIBILITY.

MTZ001>007-043-291900-
WEST OF THE DIVIDE

CITY           SKY/WX    TMP DP  RH WIND       PRES   REMARKS
KALISPELL      MOSUNNY   62  42  47 S10       29.99F
MISSOULA       PTSUNNY   57  42  57 CALM      30.05F
BUTTE          PTSUNNY   60  30  32 CALM      30.09F
MULLAN PASS    CLOUDY    50  36  58 VRB6      30.06F
ANACONDA         N/A     63  30  29 S9        30.05F
DEER LODGE       N/A     63  36  36 N6        30.06F
EUREKA           N/A     63  39  42 SW5       29.97F
HAMILTON         N/A     63  39  42 NW6       30.01F
LIBBY            N/A     63  43  48 NW5       29.98F
$$

MTZ008-052>055-291900-
SOUTHWEST MONTANA

CITY           SKY/WX    TMP DP  RH WIND       PRES   REMARKS
BOZEMAN        SUNNY     64  38  38 NE5       30.07F
DILLON         SUNNY     63  27  25 SW9       30.08F
W YELLOWSTONE  SUNNY     57  27  30 SW15G22   30.17F
ENNIS          SUNNY     64  32  29 VRB6G17   30.13S
$$

MTZ009-010-012-014-046-048-049-054-291900-
EAST SLOPES AND CENTRAL MONTANA

CITY           SKY/WX    TMP DP  RH WIND       PRES   REMARKS
CUT BANK       MOSUNNY   64  34  32 W26G32    29.96F
GREAT FALLS    SUNNY     67  35  30 SW15G21   30.00S
MALMSTROM AFB  SUNNY     65  33  30 W18G24    30.00F
HELENA         SUNNY     68  39  34 NE10      30.02F
CHOTEAU          N/A     66  34  30 SW16G23   29.98F
$$

MTZ011-013-016-021-045-047-050-051-291900-
NORTH CENTRAL MONTANA

CITY           SKY/WX    TMP DP  RH WIND       PRES   REMARKS
HAVRE          SUNNY     67  39  35 W15       29.96F
LEWISTOWN      SUNNY     67  34  29 VRB7      30.03F
N BAR RANCH      N/A     64  36  34 E9        30.05F
CHINOOK          N/A     68  36  30 W13       29.96S
$$

MTZ017>020-022>027-061-062-291900-
NORTHEAST MONTANA

CITY           SKY/WX    TMP DP  RH WIND       PRES   REMARKS
GLASGOW        SUNNY     69  39  33 W15G21    29.98F
JORDAN           N/A     71  38  29 SW12      29.99F
SIDNEY         SUNNY     72  37  28 W13G18    29.99F
WOLF POINT     SUNNY     72  40  31 SW9       29.99F
PLENTYWOOD       N/A     66  34  30 W16       29.97F
POPLAR           N/A     70  36  28 W13       29.99F
$$

MTZ028>42-056>058-291900-
SOUTHCENTRAL AND SOUTHEAST MONTANA

CITY           SKY/WX    TMP DP  RH WIND       PRES   REMARKS
BAKER          MOSUNNY   73  39  29 W7G22     30.03F
BILLINGS       MOSUNNY   68  44  42 SE6       30.04F
LIVINGSTON     SUNNY     67  34  29 W15       30.04F
MILES CITY     SUNNY     72  44  36 VRB3      30.01F
FORSYTH          N/A     72  46  40 CALM      30.01F
$$

REGIONAL REPORTS...DAKOTAS

CITY           SKY/WX    TMP DP  RH WIND       PRES   REMARKS
WILLISTON      SUNNY     73  35  25 W13       29.99F
MINOT          SUNNY     75  38  26 W15       29.97S
DICKINSON      MOSUNNY   72  40  31 MISG      30.01F
BEACH            N/A     72  37  28 W12G17    30.04F
CROSBY           N/A     66  37  34 W9        29.99S
WATFORD CITY     N/A     72  37  28 W10G18    30.01S
BISMARCK       MOSUNNY   73  42  32 W9        30.02S
GRAND FORKS    MOSUNNY   71  58  63 NW9       29.93S
FARGO          PTSUNNY   71  57  61 CALM      29.95S
BUFFALO SD       N/A     73  41  31 S8        29.98F
RAPID CITY     MOSUNNY   71  50  47 SE8G17    30.08F
$$

REGIONAL REPORTS...WYOMING/IDAHO/WASHINGTON

CITY           SKY/WX    TMP DP  RH WIND       PRES   REMARKS
GILLETTE       MOSUNNY   68  44  42 S6        30.08F
SHERIDAN       SUNNY     72  38  29 SE9G16    30.05F
BUFFALO WY     SUNNY     67  41  38 CALM      30.10F
CODY           SUNNY     66  34  30 SE9       30.07F
YELLOWSTONE LA   N/A     56  23  27 VRB7      30.23F
IDAHO FALLS    SUNNY     65  38  36 SW6       30.12F
SALMON         SUNNY     61  37  41 CALM      30.05F
BOISE          SUNNY     76  27  16 S9G20     30.00F
SPOKANE        PTSUNNY   64  41  42 SW17G24   29.99S
$$

REGIONAL REPORTS...ALBERTA

CITY           SKY/WX    TMP DP  RH WIND       PRES   REMARKS
EDMONTON       MOSUNNY   63  45  51 SE7       29.84S
CALGARY        PTSUNNY   63  28  27 SW7       29.85F
LETHBRIDGE     PTSUNNY   64  37  36 W32G43    29.92R
MEDICINE HAT   MOSUNNY   68  37  32 SW16G25   29.88F
WATERTON GATE    N/A     59  36  41 W13G20      N/A
CARDSTON         N/A     61  37  41 W10G21      N/A
MILK RIVER       N/A     64  36  34 W18G25      N/A
ONEFOUR          N/A     64  34  32 W17G25      N/A
$$

REGIONAL REPORTS...SASKATCHEWAN

CITY           SKY/WX    TMP DP  RH WIND       PRES   REMARKS
SWIFT CURRENT  SUNNY     63  43  48 SW15      29.91F
REGINA         MOSUNNY   68  43  40 W15G23    29.92F
SASKATOON      MOSUNNY   63  48  59 W7        29.88F
CYPRESS HILLS    N/A     59  39  47 SW12G18     N/A
VAL MARIE        N/A     66  34  30 W13         N/A
ROCKGLEN         N/A     63  37  39 SW17G23     N/A
ASSINIBOIA       N/A     63  43  48 E7          N/A
$$




USA.gov is the U.S. government's official web portal to all federal, state and local government web resources and services.